Lapse_Rate
5.9 5.8 5.8 5.8 5.9 6.1 6.1 6.5 6.7 6.6 6.6 6.6 6.5 6.5 6.5 6.5 6.4 6.3 6.4 6.8 7.5 7.4 7.6 7.7 7.6 7.9 7.9 8.0 8.0 8.0 8.0 8.1 8.1 8.0 7.9 7.8 7.8 8.0 8.3 8.3 8.2 8.6 8.5 8.3 8.2 8.1 7.9
6.1 5.9 5.9 5.9 5.9 5.9 6.0 6.3 6.5 6.6 6.7 6.6 6.5 6.5 6.4 6.6 6.4 6.4 6.5 7.1 7.5 7.5 7.7 7.8 7.7 7.9 8.0 8.1 7.8 7.9 8.0 8.1 8.2 8.1 8.1 8.0 8.2 8.3 8.1 8.5 8.6 8.8 8.2 7.9 8.0 8.3 8.3
6.1 5.9 5.9 5.8 5.9 5.9 6.1 6.3 6.4 6.4 6.5 6.5 6.4 6.5 6.4 6.5 6.4 6.5 6.8 7.3 7.4 7.6 7.7 7.9 7.9 8.1 8.1 7.9 7.7 7.9 8.0 8.1 8.4 8.5 8.5 8.5 8.3 8.4 8.5 8.7 8.8 8.7 8.8 8.5 8.3 8.5 8.8
5.8 6.0 5.9 5.9 6.0 5.9 6.0 6.1 6.2 6.3 6.4 6.4 6.5 6.5 6.5 6.5 6.4 6.6 7.0 7.3 7.3 7.6 7.8 8.0 8.1 8.2 8.1 7.9 7.9 8.1 8.2 8.5 8.6 8.6 8.7 8.8 8.6 8.8 8.7 9.0 9.1 9.0 9.1 9.1 8.9 8.6 8.8
6.0 5.7 5.9 5.8 5.9 5.9 5.8 6.0 6.1 6.1 6.2 6.3 6.4 6.3 6.4 6.5 6.5 6.6 7.2 7.3 7.2 7.6 7.8 7.9 8.3 8.3 8.0 8.0 8.0 8.3 8.5 8.7 8.7 8.7 8.8 8.8 8.8 8.9 9.0 9.0 9.2 9.1 9.5 9.3 8.8 8.8 8.9
6.2 6.0 5.7 5.6 5.7 5.7 5.7 5.8 5.8 6.0 6.0 6.2 6.2 6.2 6.3 6.4 6.6 6.7 7.2 7.1 7.2 7.4 7.7 7.9 8.4 8.4 8.2 8.0 8.1 8.3 8.6 8.7 8.9 8.7 8.5 8.7 8.9 8.9 9.1 9.3 9.6 9.4 9.3 9.0 8.9 8.7 8.7
6.0 6.1 5.6 5.3 5.3 5.2 5.4 5.4 5.7 5.8 6.0 6.1 6.1 6.1 6.2 6.4 6.7 6.9 7.0 7.0 7.3 7.4 7.8 8.0 8.2 8.5 8.3 8.2 8.4 8.4 8.7 8.8 8.9 8.6 8.7 8.8 9.1 9.4 9.4 9.3 9.3 9.2 9.3 9.2 8.9 9.0 8.7
6.1 5.9 5.6 5.3 5.0 5.0 5.1 5.3 5.3 5.6 5.8 6.0 6.0 6.0 6.1 6.4 6.6 7.0 6.9 7.2 7.2 7.5 7.7 8.0 8.3 8.3 8.3 8.2 8.4 8.5 8.9 8.9 9.0 8.6 8.8 9.2 9.3 9.5 9.4 9.3 9.2 9.0 9.1 9.2 9.2 9.1 8.9
6.2 6.2 5.9 5.4 4.9 5.2 4.9 5.1 5.2 5.5 5.6 5.8 5.9 5.9 6.1 6.3 6.6 6.8 6.8 7.2 7.1 7.4 7.6 8.0 8.1 8.1 8.2 8.3 8.4 8.4 9.0 9.1 9.1 9.1 9.1 9.2 9.2 9.4 9.4 9.3 9.4 9.2 9.3 9.0 9.1 9.1 8.9
6.4 6.5 6.4 6.0 5.0 5.0 5.1 5.1 5.1 5.3 5.5 5.7 5.7 5.8 6.0 6.3 6.5 6.6 6.8 7.1 7.0 7.3 7.4 7.9 8.0 8.2 8.3 8.3 8.3 8.6 8.9 9.1 9.2 8.9 9.1 9.1 9.5 9.2 9.1 9.1 9.2 9.1 9.2 9.0 8.9 8.9 9.5
6.4 6.5 6.7 6.4 5.7 5.1 5.2 5.1 5.0 5.2 5.4 5.5 5.6 5.7 5.8 6.3 6.4 6.5 6.6 6.8 6.8 7.3 8.2 8.0 7.9 8.2 8.2 8.3 8.4 8.5 8.9 8.9 9.0 9.0 9.1 9.1 9.1 9.1 9.0 9.1 9.0 8.8 9.0 8.8 8.6 8.8 8.7
6.4 6.3 6.5 6.7 5.7 5.1 5.1 5.0 5.1 5.3 5.4 5.4 5.5 5.7 5.9 6.3 6.2 6.0 6.3 6.7 6.8 7.1 7.9 7.9 8.0 8.1 8.3 8.3 8.3 8.2 8.5 8.8 9.0 9.0 9.0 9.1 9.2 9.0 9.0 9.0 8.9 8.8 8.5 8.4 8.4 8.4 8.8
5.4 5.8 6.3 6.7 6.0 4.8 5.3 5.0 5.0 5.4 5.5 5.5 5.4 5.7 6.2 5.9 5.6 6.0 6.3 6.6 6.7 7.4 7.7 7.8 7.9 8.2 8.3 8.2 8.2 8.1 8.3 8.6 9.1 9.0 8.9 8.8 8.7 8.9 8.9 8.5 8.4 8.3 8.5 9.0 8.6 8.7 8.8
4.2 4.9 5.5 6.3 5.5 4.7 5.2 4.8 4.9 5.4 5.7 5.4 5.5 5.7 5.8 6.2 5.4 5.9 6.0 6.5 7.2 7.6 7.6 7.8 7.8 8.1 8.2 8.2 8.1 8.1 8.3 8.6 8.9 9.0 9.0 9.2 8.7 8.3 8.5 8.3 8.6 8.2 8.4 8.7 8.4 8.5 8.7
3.7 4.2 5.1 5.6 5.3 4.3 5.0 4.8 4.9 5.2 5.5 5.4 5.5 5.9 5.9 6.0 5.7 5.9 5.9 6.1 7.1 7.5 7.6 7.8 7.9 8.1 8.0 8.0 8.1 8.1 8.1 8.4 8.5 8.8 9.1 8.7 8.5 8.4 8.4 8.3 8.2 8.0 8.2 8.0 7.7 7.2 7.4
2.1 2.6 3.8 5.2 4.8 4.5 4.9 5.2 5.1 5.5 5.5 5.5 5.7 6.2 6.8 6.1 6.0 5.9 5.8 6.5 7.1 7.5 7.7 7.7 7.9 8.1 8.1 8.0 8.0 8.1 8.0 8.2 8.4 8.6 8.7 8.6 8.2 8.0 8.2 8.1 8.0 7.9 7.9 7.8 7.6 7.6 8.0
2.2 1.7 2.0 3.1 4.1 4.8 5.2 5.6 5.6 5.6 5.5 5.6 5.9 6.0 6.9 6.5 6.2 5.7 5.5 6.6 7.1 7.5 7.5 7.6 7.9 7.8 8.0 7.7 7.9 8.0 7.9 8.1 8.2 8.3 8.4 8.3 8.4 7.6 7.8 7.7 8.0 7.7 7.6 7.6 7.6 7.3 8.1
2.6 2.5 2.3 2.9 4.1 5.5 5.3 5.8 5.4 5.9 5.6 5.4 5.9 6.1 6.8 6.6 6.0 6.1 6.3 6.9 7.3 7.4 7.5 7.7 7.8 7.8 7.8 7.7 7.7 7.8 7.8 7.9 8.0 8.1 8.1 8.1 8.1 7.8 7.9 7.9 7.8 7.7 7.5 7.5 7.8 7.6 6.7
3.7 3.1 3.0 3.4 4.5 5.6 5.9 6.1 5.5 5.9 5.7 6.1 6.5 6.1 6.8 6.9 6.2 6.2 6.8 7.3 7.3 7.5 7.7 7.8 7.8 7.7 7.7 7.6 7.7 7.7 7.7 7.8 7.8 7.8 7.8 7.9 7.7 7.8 7.6 7.4 7.5 7.3 7.5 7.4 7.6 7.5 7.1
5.4 4.7 4.1 3.7 4.8 5.5 5.8 5.6 5.6 6.0 6.4 6.8 6.5 6.6 6.7 6.6 6.4 6.8 7.1 7.4 7.3 7.5 7.6 7.8 7.7 7.8 7.8 7.7 7.8 7.8 7.7 7.7 7.7 7.7 7.7 7.7 7.7 7.9 8.2 8.3 7.9 7.3 7.5 7.6 7.3 7.1 7.7
6.1 5.9 5.4 4.3 4.1 5.7 5.8 5.5 5.4 6.3 6.7 6.6 6.6 6.5 6.5 6.2 6.5 7.0 7.4 7.5 7.5 7.5 7.5 7.8 7.8 7.9 7.9 7.9 7.8 7.7 7.7 7.6 7.6 7.7 7.7 7.5 7.4 7.6 7.7 7.7 7.7 7.6 7.4 7.4 7.2 7.5 7.1
6.7 6.1 5.2 4.7 4.5 5.5 5.5 5.7 6.2 6.4 6.3 6.5 6.4 6.4 6.3 7.0 6.9 7.3 7.5 7.6 7.6 7.5 7.6 7.8 7.8 7.9 8.0 8.0 8.0 8.0 7.8 7.7 7.8 7.8 7.6 7.5 7.2 7.4 7.4 7.4 7.3 7.3 7.3 7.3 7.4 7.2 7.1
6.5 5.4 4.9 5.0 4.8 5.6 5.7 5.3 6.1 6.3 6.3 6.3 6.1 6.4 7.0 7.1 7.1 7.4 7.3 7.3 7.6 7.5 7.6 7.8 8.0 8.0 8.0 7.9 7.9 7.8 7.7 7.7 7.7 7.6 7.5 7.3 7.2 7.2 6.9 7.3 7.0 6.6 7.5 7.6 7.8 7.9 7.8
5.6 5.5 5.3 5.1 5.6 5.2 5.7 6.2 6.2 6.1 6.4 6.2 6.2 6.7 6.9 7.4 7.3 7.3 7.3 7.5 7.6 7.5 7.7 7.7 7.7 7.7 7.7 7.6 7.5 7.5 7.5 7.5 7.5 7.4 7.3 7.2 7.1 7.0 6.9 6.8 6.3 7.4 7.6 7.6 7.6 7.7 7.7
5.0 5.2 5.0 5.6 5.7 5.3 5.9 6.1 6.2 6.2 6.2 6.5 6.5 6.8 7.2 7.4 7.7 7.6 7.3 7.6 7.5 7.6 7.7 7.6 7.6 7.6 7.4 7.3 7.3 7.2 7.0 7.1 7.1 7.1 7.1 7.1 7.0 6.9 6.7 6.3 6.7 7.3 7.3 7.4 7.3 7.5 7.5
5.4 5.5 5.8 5.9 5.3 5.7 6.0 6.0 6.2 6.3 6.6 6.5 6.6 7.0 7.3 7.7 7.6 7.8 7.3 7.5 7.4 7.4 7.5 7.6 7.5 7.3 7.2 7.1 7.1 6.9 6.8 6.9 6.8 6.8 6.9 6.9 6.8 6.6 6.5 6.2 6.3 7.0 7.2 7.2 6.8 6.4 6.8
5.1 5.4 5.7 5.7 6.0 5.9 5.9 6.2 6.6 6.6 6.7 6.6 6.9 7.1 7.4 7.7 7.9 7.8 7.4 7.5 7.3 7.4 7.5 7.6 7.6 7.3 7.0 7.0 6.9 6.9 6.9 7.1 6.9 7.0 7.2 6.9 6.7 6.5 6.4 6.1 6.4 6.9 6.6 6.3 6.1 6.1 6.0
5.5 5.5 5.6 6.2 6.1 6.0 6.7 6.7 6.7 6.7 6.6 6.6 6.9 7.1 7.3 7.4 7.6 7.6 7.4 7.3 7.4 7.3 7.6 7.6 7.4 7.2 7.0 6.9 6.8 6.8 6.7 6.8 6.8 6.9 6.9 6.9 6.8 6.6 6.4 6.1 6.0 6.5 6.1 5.8 5.9 6.0 6.0
5.8 6.3 6.0 6.1 6.4 6.7 6.7 6.7 6.8 6.7 6.6 6.6 6.8 7.2 7.4 7.3 7.5 7.5 7.6 7.5 7.4 7.4 7.6 7.7 7.6 7.5 7.1 6.8 6.7 6.8 6.6 6.6 6.7 6.6 6.8 6.4 6.7 6.8 6.7 6.5 6.5 6.0 5.8 5.7 5.8 6.0 6.1
Wind_Speed
25 24 23 21 20 19 18 16 15 14 14 15 15 16 16 15 16 15 15 15 14 13 10 9 8 7 5 6 8 5 10 12 17 13 13 10 9 9 10 10 6 12 4 5 12 18 12
26 26 25 24 21 20 18 18 17 15 14 14 16 16 17 16 15 15 14 13 13 10 9 8 5 6 5 8 2 6 8 10 8 14 13 12 5 9 4 4 10 5 5 7 7 9 6
18 26 26 24 23 21 20 20 19 16 15 13 16 15 17 16 14 14 12 12 10 7 8 6 3 3 6 12 2 5 6 5 7 12 10 13 10 7 2 2 3 11 10 6 8 12 8
16 21 27 25 24 24 23 21 19 17 15 14 15 15 16 15 14 12 9 9 6 5 6 4 2 3 7 4 5 11 14 9 8 12 10 2 10 10 4 1 5 7 14 9 9 13 4
13 15 26 26 25 25 24 22 19 18 15 14 15 14 14 14 11 9 6 6 4 5 4 1 3 4 7 5 8 5 7 3 7 7 7 2 8 5 6 10 9 9 9 11 8 2 8
14 12 17 26 25 25 23 22 20 18 16 15 14 14 13 12 9 4 3 2 5 6 3 3 4 5 7 0 4 5 3 4 3 9 5 4 6 5 6 9 8 7 8 9 10 5 10
21 17 16 23 26 25 23 21 20 18 16 15 13 12 11 10 5 5 6 3 5 5 5 7 1 5 4 10 3 5 1 4 3 6 10 7 7 6 13 4 4 4 6 12 8 4 7
23 19 14 21 28 26 24 22 20 19 17 14 12 10 10 7 5 7 4 5 3 4 6 17 13 9 12 5 4 4 2 4 1 1 3 6 3 5 5 4 3 5 7 7 5 4 5
24 21 18 15 29 27 26 23 21 19 17 13 10 8 7 3 8 5 8 12 2 10 5 3 6 8 4 7 3 6 3 2 3 2 4 5 6 4 7 8 7 4 3 10 5 7 2
25 24 20 14 11 28 26 23 21 19 17 13 9 6 5 12 5 4 6 10 15 5 4 7 6 5 5 4 5 1 1 2 1 6 3 4 3 4 6 6 3 5 2 5 11 10 7
26 24 21 17 11 13 25 24 22 19 17 12 9 6 11 23 3 6 2 3 4 3 5 10 7 3 5 5 3 3 3 3 6 4 3 4 5 5 4 3 1 4 4 4 3 4 5
25 23 22 19 18 9 22 24 23 21 17 12 7 6 12 8 4 9 5 2 4 5 5 8 7 9 9 4 3 3 3 4 3 2 2 5 3 2 3 6 2 10 8 6 2 3 8
25 23 22 20 18 12 19 25 24 22 17 12 8 9 13 8 4 3 4 4 6 6 3 7 10 11 12 6 6 5 8 9 7 9 9 6 3 3 3 9 6 6 6 3 3 4 6
25 23 22 22 22 18 19 27 25 23 19 13 9 11 11 10 5 6 4 7 9 6 8 2 7 13 12 9 5 4 8 8 3 6 9 9 7 5 1 3 2 2 3 3 4 3 1
24 22 24 21 21 17 21 28 27 24 20 15 16 5 4 7 19 4 6 11 8 6 7 9 10 15 8 7 4 7 5 7 3 4 7 6 4 4 3 2 3 5 4 3 2 1 3
25 23 23 22 24 19 26 30 27 26 24 23 7 6 6 10 13 6 6 14 9 4 5 10 13 13 14 13 9 9 9 4 4 2 3 4 4 2 5 2 7 4 9 3 3 3 4
24 24 23 24 24 20 26 31 28 28 27 29 7 6 7 17 8 7 10 14 7 6 6 11 13 8 12 9 9 10 9 4 4 4 1 5 3 6 4 7 6 4 4 1 0 2 2
25 25 24 24 24 24 17 32 30 29 26 11 8 9 8 10 8 8 12 12 4 7 5 7 7 7 12 11 8 9 11 3 4 4 5 2 1 4 5 3 1 2 5 8 4 4 1
26 26 25 24 24 21 17 27 33 32 32 8 8 5 3 3 11 8 9 7 6 6 8 9 8 5 6 10 5 5 6 2 3 5 6 6 3 4 4 4 4 7 9 5 4 1 6
26 26 26 25 26 22 20 24 33 34 37 8 10 7 5 5 7 15 13 15 8 2 5 4 5 4 8 6 1 7 7 3 2 2 3 3 3 7 10 2 0 6 11 11 11 4 5
25 26 25 26 29 25 23 29 33 34 37 3 7 8 11 12 14 12 16 14 14 6 3 7 5 8 8 5 6 6 6 5 3 5 3 3 6 4 2 0 3 4 8 13 15 14 8
24 24 24 26 28 27 24 34 34 34 29 3 7 6 5 16 17 13 12 12 17 6 6 7 8 10 7 6 8 10 10 7 5 6 5 2 3 3 3 2 2 7 8 10 15 16 15
24 23 22 24 23 26 26 33 33 30 20 7 4 1 11 4 14 12 11 12 14 11 1 3 11 9 6 4 5 7 7 7 5 7 6 4 5 4 2 2 3 6 15 18 13 12 15
25 24 23 23 27 27 32 32 31 31 28 5 3 4 7 7 12 13 12 9 12 9 7 5 3 4 5 16 17 14 14 12 10 9 2 5 5 1 1 2 3 1 1 3 12 16 15
23 23 25 27 27 29 30 28 28 30 40 3 2 3 4 4 12 11 13 7 9 5 5 6 4 3 15 3 4 4 2 2 5 7 5 1 4 3 2 4 6 12 3 3 3 6 4
23 21 19 26 25 28 29 28 29 29 32 6 4 2 3 8 9 14 11 11 7 6 5 4 6 9 2 2 2 4 4 4 5 4 3 5 3 2 3 3 4 3 4 1 2 5 3
26 27 27 27 24 23 25 27 26 24 25 8 3 3 2 4 4 8 12 11 5 5 5 6 8 3 1 2 2 2 3 1 5 5 4 2 1 4 3 4 6 1 1 2 2 3 1
25 24 23 22 24 23 25 23 23 24 27 9 1 4 1 4 5 1 2 6 5 6 6 8 6 2 2 2 2 3 2 4 3 2 4 6 6 3 3 3 4 5 6 3 4 3 3
20 21 21 22 23 23 23 22 25 25 27 15 2 1 6 6 4 5 8 6 3 3 6 11 1 6 5 3 1 3 3 1 1 3 3 3 3 1 6 1 3 6 6 3 4 7 7
Wind_Direction
228 231 232 229 228 232 236 240 250 264 276 283 290 293 295 303 305 301 297 297 291 294 300 298 308 340 283 240 257 77 84 133 158 190 206 208 217 218 213 207 187 234 164 204 156 168 191
232 227 227 227 224 226 231 238 244 256 269 278 287 294 297 302 301 297 296 297 288 298 294 288 309 318 265 254 19 165 125 153 187 198 207 212 234 232 293 222 215 177 137 189 250 156 158
302 228 227 226 224 224 228 233 241 249 262 269 281 290 296 303 301 298 299 293 292 298 287 278 306 280 254 255 5 187 185 262 214 209 216 214 221 214 207 193 144 131 124 145 167 186 174
286 274 225 224 223 223 229 234 242 247 256 265 274 287 297 303 303 299 297 286 291 285 270 267 264 255 260 242 291 252 255 256 217 215 237 199 218 244 257 110 163 179 169 149 156 185 148
262 289 246 224 221 221 227 231 237 244 249 260 274 285 295 302 300 298 287 275 271 258 237 105 203 256 262 296 245 267 203 240 153 171 213 137 172 208 167 193 169 195 168 138 137 351 152
260 279 277 228 220 219 221 226 234 240 248 259 271 284 296 301 294 274 249 257 204 206 191 206 256 255 243 239 334 306 205 220 185 138 101 183 201 202 194 197 197 152 155 159 154 126 186
259 261 276 245 221 219 217 220 227 236 247 256 268 281 295 294 269 198 162 192 211 189 211 233 321 291 297 324 228 203 186 196 195 187 219 188 216 195 182 210 47 154 148 147 130 141 153
254 254 277 253 225 218 216 214 219 230 241 249 264 280 292 279 206 176 241 240 302 2 261 226 248 275 274 291 276 209 245 236 275 221 275 197 146 91 125 136 128 168 158 132 121 139 229
248 248 253 278 229 218 214 211 212 222 235 242 256 275 283 210 147 172 229 229 122 357 259 180 214 248 264 194 243 200 243 183 226 192 271 267 86 134 134 127 126 105 180 163 152 143 119
244 243 245 252 275 215 210 208 206 214 229 233 241 257 223 151 166 196 227 243 252 250 253 160 206 225 185 227 215 334 44 280 135 174 113 74 84 135 131 120 276 151 86 136 147 190 197
239 240 239 245 239 242 202 204 201 206 220 221 225 219 192 186 4 215 51 209 192 202 206 162 171 92 148 207 123 140 29 211 216 160 254 110 150 140 153 66 323 109 163 137 183 228 245
233 237 234 230 234 232 217 200 198 202 210 203 203 214 182 216 257 263 336 141 217 222 227 164 161 173 169 185 143 138 154 83 84 120 143 103 81 11 79 73 179 143 139 116 163 254 250
229 232 229 226 224 232 226 204 193 199 198 184 195 189 183 178 221 297 205 190 207 226 130 168 176 178 186 168 164 198 186 170 187 168 171 154 107 112 172 128 153 219 200 232 231 220 254
227 230 225 221 227 229 227 206 191 192 180 170 184 167 217 228 260 348 201 210 218 187 194 146 170 177 190 170 180 166 178 180 187 246 174 182 172 179 130 296 196 154 268 237 262 233 275
227 229 227 222 220 230 227 205 190 176 165 165 157 162 220 221 227 297 215 214 204 183 178 173 161 176 170 173 213 191 210 180 175 228 208 179 130 121 46 137 293 142 218 36 127 79 274
223 227 228 227 219 229 224 202 185 165 160 172 175 184 213 183 181 216 227 228 209 161 158 191 180 197 185 184 189 204 194 157 158 227 287 156 142 171 133 151 63 283 129 185 216 237 246
219 224 227 229 218 225 219 198 175 163 166 187 180 189 122 141 162 209 217 211 207 185 192 194 187 172 195 175 206 195 187 146 203 153 225 162 236 153 185 212 189 153 193 196 240 281 282
219 223 224 225 215 217 225 186 168 163 169 175 183 197 139 141 184 209 218 211 195 165 178 200 198 167 189 181 176 193 199 236 159 179 182 109 141 182 194 123 300 261 219 204 233 182 215
218 221 225 221 213 198 208 184 163 161 167 169 186 132 99 192 197 205 210 218 210 169 184 181 171 178 175 173 173 193 186 84 186 201 167 170 198 187 180 180 185 225 198 202 129 138 211
218 220 220 220 206 197 195 190 160 169 185 215 179 164 137 190 217 206 198 205 180 207 154 171 144 139 145 161 135 171 164 138 138 146 52 182 186 239 242 276 201 201 203 201 206 208 228
217 222 216 217 198 191 199 189 169 180 190 223 210 185 162 177 199 211 197 194 189 165 200 192 153 191 167 146 161 167 163 146 144 153 138 225 233 214 218 137 241 257 226 204 215 234 224
215 218 215 213 189 193 198 184 172 182 179 255 192 162 176 161 180 197 189 206 191 151 185 175 188 163 176 170 197 187 171 190 176 172 168 165 201 184 225 224 276 266 244 233 233 246 250
215 215 213 204 189 194 194 182 175 173 162 202 184 103 163 160 177 183 192 185 199 147 76 58 156 141 140 99 71 63 82 85 122 165 163 171 157 161 241 356 276 276 241 227 228 228 236
209 211 197 193 187 191 188 176 174 172 189 243 189 152 149 159 188 192 177 183 180 177 137 96 121 116 110 122 107 86 82 82 85 71 64 141 132 78 149 226 223 339 162 283 251 255 248
203 202 201 184 170 179 171 170 172 177 200 249 264 185 125 127 186 179 179 150 126 108 97 110 60 59 146 155 112 116 76 72 72 54 59 108 137 118 179 221 314 280 198 231 217 293 276
200 192 177 167 172 167 168 170 178 184 199 219 285 297 127 126 205 171 163 173 153 145 123 85 86 115 121 80 127 155 182 183 166 139 69 80 66 230 152 220 250 48 69 177 227 274 4
193 172 162 162 163 164 171 175 178 184 184 202 244 265 128 105 143 162 181 176 145 145 112 129 151 177 318 107 111 161 167 344 173 180 174 118 47 208 177 238 279 291 215 165 247 18 27
142 147 149 157 169 171 176 174 174 186 182 198 81 340 34 91 115 90 139 151 139 177 151 141 138 169 127 153 165 168 147 180 194 140 183 180 164 182 142 202 269 155 146 230 13 344 323
140 150 161 167 170 175 172 171 178 182 185 207 121 283 53 74 85 78 73 43 36 60 126 173 53 148 163 121 141 114 136 150 159 194 193 221 229 215 216 223 104 196 284 360 332 302 303